Cambridge, MN

10:02 PM CST on January 23, 2017 (GMT -0600)
Cambridge Municipal

Weather History for KCBG - May, 2014

Change the Weather History Date:

Monday, May 19, 2014

  Actual Average Record
Temperature  
Mean Temperature 56 °F -  
Max Temperature 62 °F 69 °F 89 °F (1972)
Min Temperature 51 °F 47 °F 23 °F (2000)
Degree Days  
Heating Degree Days 8    
Growing Degree Days 6 (Base 50)    
Moisture  
Dew Point 45 °F    
Average Humidity 66    
Maximum Humidity 77    
Minimum Humidity 48    
Precipitation  
Precipitation 0.31 in - - ()
Sea Level Pressure  
Sea Level Pressure 29.86 in    
Wind  
Wind Speed 8 mph (SE)    
Max Wind Speed 14 mph    
Max Gust Speed 22 mph    
Visibility 8 miles    
Events Rain , Thunderstorm    
Averages and records for this station are not official NWS values.
T = Trace of Precipitation, MM = Missing Value Source: NWS Daily Summary

Daily Weather History Graph

Daily Weather History Graph

Search for Another Location

Airport or City:

Trip Planner

Search our weather history database for the weather conditions in past years. The results will help you decide how hot, cold, wet, or windy it might be!

Date:

Astronomy

May. 19, 2014 Rise Set
Actual Time 5:37 AM CDT 8:41 PM CDT
Civil Twilight 5:02 AM CDT 9:17 PM CDT
Nautical Twilight 4:17 AM CDT 10:02 PM CDT
Astronomical Twilight 3:22 AM CDT 10:57 PM CDT
Moon 12:25 AM CDT (5/19) 10:41 AM CDT (5/19)
Length of Visible Light 16h 14m
Length of Day
15h 03m
Waning Gibbous, 71% of the Moon is Illuminated
May 19
Waning Gibbous
May 21
Last Quarter
May 28
New
Jun 5
First Quarter
Jun 12
Full

Hourly Weather History & Observations

Time (CDT) Temp. Dew Point Humidity Pressure Visibility Wind Dir Wind Speed Gust Speed Precip Events Conditions
12:15 AM 62.6 °F 42.8 °F 48% 29.98 in 10.0 mi SSE 8.1 mph - N/A   Clear
12:36 AM 62.6 °F 42.8 °F 48% 29.98 in 10.0 mi SSE 5.8 mph - N/A   Clear
12:55 AM 62.6 °F 42.8 °F 48% 29.98 in 10.0 mi SE 4.6 mph - N/A   Clear
1:16 AM 62.6 °F 42.8 °F 48% 29.97 in 10.0 mi SSE 8.1 mph - N/A   Clear
1:36 AM 62.6 °F 42.8 °F 48% 29.97 in 10.0 mi SSE 8.1 mph - N/A   Scattered Clouds
1:55 AM 62.6 °F 42.8 °F 48% 29.98 in 10.0 mi SSE 8.1 mph - N/A   Scattered Clouds
2:16 AM 62.6 °F 42.8 °F 48% 29.98 in 10.0 mi SSE 6.9 mph - N/A   Scattered Clouds
2:35 AM 62.6 °F 42.8 °F 48% 29.98 in 10.0 mi SSE 8.1 mph - N/A   Clear
2:55 AM 60.8 °F 42.8 °F 52% 29.97 in 10.0 mi SE 6.9 mph - N/A   Scattered Clouds
3:16 AM 60.8 °F 42.8 °F 52% 29.97 in 10.0 mi SSE 6.9 mph - N/A   Scattered Clouds
3:35 AM 60.8 °F 42.8 °F 52% 29.96 in 10.0 mi SE 8.1 mph - N/A   Scattered Clouds
3:55 AM 60.8 °F 42.8 °F 52% 29.96 in 10.0 mi SSE 6.9 mph - N/A   Scattered Clouds
4:16 AM 60.8 °F 42.8 °F 52% 29.95 in 10.0 mi SE 6.9 mph - N/A   Mostly Cloudy
4:35 AM 60.8 °F 42.8 °F 52% 29.94 in 10.0 mi SE 5.8 mph - N/A   Mostly Cloudy
4:55 AM 59.0 °F 42.8 °F 55% 29.93 in 10.0 mi SE 6.9 mph - N/A   Scattered Clouds
5:16 AM 57.2 °F 42.8 °F 59% 29.93 in 10.0 mi SE 8.1 mph - N/A   Clear
5:35 AM 57.2 °F 42.8 °F 59% 29.93 in 10.0 mi SE 8.1 mph - N/A   Scattered Clouds
5:55 AM 59.0 °F 42.8 °F 55% 29.93 in 10.0 mi SE 9.2 mph - N/A   Mostly Cloudy
6:16 AM 59.0 °F 42.8 °F 55% 29.91 in 10.0 mi SE 10.4 mph 17.3 mph N/A   Overcast
6:35 AM 59.0 °F 44.6 °F 59% 29.91 in 10.0 mi SE 11.5 mph 18.4 mph N/A   Mostly Cloudy
6:55 AM 60.8 °F 44.6 °F 55% 29.93 in 10.0 mi SE 11.5 mph 18.4 mph N/A   Mostly Cloudy
7:16 AM 60.8 °F 44.6 °F 55% 29.93 in 10.0 mi SE 9.2 mph 18.4 mph N/A   Mostly Cloudy
7:35 AM 60.8 °F 44.6 °F 55% 29.93 in 10.0 mi SE 8.1 mph - N/A   Mostly Cloudy
8:56 AM 59.0 °F 44.6 °F 59% 29.88 in 10.0 mi ESE 10.4 mph 17.3 mph N/A Rain Light Rain
9:56 AM 57.2 °F 44.6 °F 63% 29.86 in 10.0 mi ESE 8.1 mph - N/A Rain Light Rain
10:15 AM 55.4 °F 44.6 °F 67% 29.86 in 10.0 mi SE 9.2 mph - 0.02 in Rain , Thunderstorm Rain
10:35 AM 55.4 °F 44.6 °F 67% 29.88 in 10.0 mi SE 3.5 mph - 0.04 in Rain , Thunderstorm Rain
10:56 AM 53.6 °F 44.6 °F 72% 29.87 in 5.0 mi East 9.2 mph - N/A Rain , Thunderstorm Heavy Thunderstorms and Rain
11:15 AM 51.8 °F 44.6 °F 76% 29.85 in 4.0 mi ESE 12.7 mph 18.4 mph 0.01 in Rain , Thunderstorm Heavy Thunderstorms and Rain
11:36 AM 51.8 °F 44.6 °F 76% 29.85 in 7.0 mi East 11.5 mph 17.3 mph 0.02 in Rain , Thunderstorm Thunderstorms and Rain
11:55 AM 51.8 °F 44.6 °F 76% 29.88 in 7.0 mi ESE 5.8 mph - 0.03 in Rain , Thunderstorm Rain
12:15 PM 51.8 °F 44.6 °F 76% 29.89 in 1.5 mi SE 6.9 mph - 0.01 in Rain , Thunderstorm Heavy Thunderstorms and Rain
12:36 PM 51.8 °F 44.6 °F 76% 29.85 in 5.0 mi SE 11.5 mph 16.1 mph 0.03 in Rain , Thunderstorm Thunderstorms and Rain
1:15 PM 53.6 °F 44.6 °F 72% 29.81 in 4.0 mi ESE 12.7 mph 20.7 mph 0.01 in Rain Heavy Rain
1:36 PM 53.6 °F 46.4 °F 77% 29.82 in 10.0 mi ESE 10.4 mph 17.3 mph 0.02 in Rain Light Rain
1:55 PM 53.6 °F 46.4 °F 77% 29.82 in 10.0 mi SE 10.4 mph 18.4 mph 0.03 in Rain Light Rain
2:15 PM 53.6 °F 46.4 °F 77% 29.81 in 10.0 mi SE 9.2 mph - 0.01 in Thunderstorm Thunderstorm
2:36 PM 53.6 °F 46.4 °F 77% 29.81 in 10.0 mi SE 6.9 mph 16.1 mph 0.02 in Rain Rain
2:55 PM 53.6 °F 46.4 °F 77% 29.81 in 10.0 mi SE 9.2 mph 17.3 mph 0.03 in Rain Light Rain
3:15 PM 55.4 °F 46.4 °F 72% 29.80 in 10.0 mi SE 10.4 mph 18.4 mph 0.01 in Rain , Thunderstorm Rain
3:36 PM 55.4 °F 46.4 °F 72% 29.79 in 10.0 mi SE 10.4 mph 18.4 mph 0.02 in Rain Light Rain
3:55 PM 55.4 °F 46.4 °F 72% 29.79 in 10.0 mi ESE 10.4 mph 16.1 mph 0.02 in Thunderstorm Thunderstorm
4:15 PM 55.4 °F 46.4 °F 72% 29.77 in 10.0 mi SE 13.8 mph 21.9 mph 0.01 in Rain , Thunderstorm Light Thunderstorms and Rain
4:36 PM 55.4 °F 46.4 °F 72% 29.77 in 10.0 mi SE 10.4 mph 21.9 mph 0.01 in Rain , Thunderstorm Light Thunderstorms and Rain
4:55 PM 55.4 °F 46.4 °F 72% 29.77 in 10.0 mi SE 12.7 mph 21.9 mph 0.02 in Thunderstorm Thunderstorm
5:15 PM 55.4 °F 46.4 °F 72% 29.78 in 10.0 mi SE 6.9 mph 18.4 mph N/A   Overcast
5:55 PM 53.6 °F 46.4 °F 77% 29.78 in 5.0 mi SE 9.2 mph 16.1 mph 0.01 in Rain , Thunderstorm Heavy Thunderstorms and Rain
6:16 PM 53.6 °F 46.4 °F 77% 29.77 in 7.0 mi SE 10.4 mph 19.6 mph N/A Rain , Thunderstorm Rain
6:35 PM 53.6 °F 46.4 °F 77% 29.77 in 7.0 mi SE 6.9 mph - 0.01 in Rain , Thunderstorm Light Thunderstorms and Rain
6:55 PM 55.4 °F 46.4 °F 72% 29.77 in 5.0 mi SE 5.8 mph - 0.01 in   Drizzle
7:16 PM 55.4 °F 46.4 °F 72% 29.78 in 4.0 mi SE 5.8 mph - 0.01 in   Heavy Drizzle
7:35 PM 55.4 °F 46.4 °F 72% 29.78 in 2.5 mi ESE 4.6 mph - 0.02 in Rain Rain
7:56 PM 55.4 °F 46.4 °F 72% 29.78 in 2.0 mi ESE 5.8 mph - N/A Rain , Thunderstorm Heavy Thunderstorms and Rain
8:15 PM 55.4 °F 46.4 °F 72% 29.78 in 4.0 mi ESE 8.1 mph - 0.01 in Rain Rain
8:35 PM 55.4 °F 46.4 °F 72% 29.77 in 4.0 mi ESE 3.5 mph - 0.01 in Rain Light Rain
8:55 PM 55.4 °F 46.4 °F 72% 29.78 in 5.0 mi SE 4.6 mph - 0.02 in   Drizzle
9:15 PM 55.4 °F 46.4 °F 72% 29.78 in 4.0 mi SE 4.6 mph - N/A   Drizzle
9:36 PM 53.6 °F 46.4 °F 77% 29.78 in 4.0 mi SE 4.6 mph - 0.01 in   Drizzle
9:55 PM 53.6 °F 46.4 °F 77% 29.79 in 3.0 mi SE 5.8 mph - 0.01 in   Drizzle
10:15 PM 53.6 °F 46.4 °F 77% 29.78 in 2.5 mi ESE 9.2 mph - 0.01 in   Drizzle
10:35 PM 53.6 °F 46.4 °F 77% 29.76 in 2.5 mi East 6.9 mph - 0.01 in   Drizzle
10:55 PM 53.6 °F 46.4 °F 77% 29.76 in 4.0 mi SE 5.8 mph - 0.02 in Rain Light Rain
11:16 PM 55.4 °F 46.4 °F 72% 29.76 in 5.0 mi SE 4.6 mph - 0.01 in   Haze
11:35 PM 55.4 °F 46.4 °F 72% 29.76 in 5.0 mi SE 6.9 mph - 0.01 in   Haze
11:55 PM 55.4 °F 46.4 °F 72% 29.76 in 5.0 mi SE 6.9 mph - 0.02 in Rain , Thunderstorm Light Thunderstorms and Rain